FW7023 Weather Reports


Display with metric or nautical units.
time (UTC)temp
F
wind
direction
speed
MPH
gust
MPH
rain 1hr
in
rain 24hr
in
rain mn
in
humidity
%
barometer
mb
20210731182703 81 341 3.0 3.0 0.00 0.00 0.00 76 1015.8
20210731182202 82 335 2.0 2.0 0.00 0.00 0.00 72 1016.4
20210731181700 82 357 3.0 3.0 0.00 0.00 0.00 73 1016.4
20210731181159 82 4 7.0 8.0 0.00 0.00 0.00 73 1016.7
20210731180658 83 352 3.0 3.0 0.00 0.00 0.00 72 1016.5
20210731180156 84 314 0.0 1.0 0.00 0.00 0.00 72 1017.0
20210731175654 84 3 2.0 2.0 0.00 0.00 0.00 73 1016.5
20210731175154 83 172 0.0 1.0 0.00 0.00 0.00 74 1016.4
20210731174654 83 5 1.0 3.0 0.00 0.00 0.00 73 1016.4
20210731174152 84 356 4.0 6.0 0.00 0.00 0.00 71 1016.4
20210731173651 84 345 2.0 2.0 0.00 0.00 0.00 72 1016.1
20210731173149 84 345 2.0 2.0 0.00 0.00 0.00 71 1016.2
20210731172647 84 63 1.0 1.0 0.00 0.00 0.00 72 1016.0
20210731172147 84 44 2.0 2.0 0.00 0.00 0.00 72 1016.3
20210731171646 83 340 1.0 2.0 0.00 0.00 0.00 73 1016.2
20210731171144 83 193 0.0 0.0 0.00 0.00 0.00 74 1016.3
20210731170642 83 133 0.0 1.0 0.00 0.00 0.00 71 1016.4
20210731170138 84 323 2.0 3.0 0.00 0.00 0.00 71 1016.6
20210731165637 85 266 0.0 1.0 0.00 0.00 0.00 69 1016.4
20210731165136 85 200 1.0 2.0 0.00 0.00 0.00 69 1016.5
20210731164634 86 330 2.0 2.0 0.00 0.00 0.00 68 1016.5
20210731164132 86 6 3.0 3.0 0.00 0.00 0.00 69 1016.5
20210731163632 84 216 0.0 0.0 0.00 0.00 0.00 70 1016.6
20210731163129 84 1 2.0 2.0 0.00 0.00 0.00 74 1016.6
20210731162627 83 9 1.0 2.0 0.00 0.00 0.00 73 1016.5
20210731162127 82 234 0.0 0.0 0.00 0.00 0.00 74 1016.6
20210731161627 83 337 0.0 1.0 0.00 0.00 0.00 73 1016.3
20210731161125 83 5 1.0 2.0 0.00 0.00 0.00 73 1016.6
20210731160624 84 90 1.0 1.0 0.00 0.00 0.00 72 1016.4
20210731160122 84 262 0.0 1.0 0.00 0.00 0.00 72 1016.4
20210731155618 84 351 3.0 3.0 0.00 0.00 0.00 71 1016.4
20210731155119 83 8 3.0 3.0 0.00 0.00 0.00 73 1016.5
20210731154618 83 18 2.0 3.0 0.00 0.00 0.00 72 1016.6
20210731154117 83 31 2.0 2.0 0.00 0.00 0.00 73 1016.9
20210731153616 82 3 2.0 2.0 0.00 0.00 0.00 75 1016.6
20210731153113 82 26 2.0 3.0 0.00 0.00 0.00 73 1016.8
20210731152610 82 1 2.0 2.0 0.00 0.00 0.00 73 1016.6
20210731152110 82 217 0.0 1.0 0.00 0.00 0.00 76 1016.6
20210731151607 81 25 3.0 5.0 0.00 0.00 0.00 79 1016.7
20210731151106 82 345 1.0 2.0 0.00 0.00 0.00 79 1016.6
20210731150605 82 9 2.0 2.0 0.00 0.00 0.00 78 1016.7
20210731150102 81 15 0.0 0.0 0.00 0.00 0.00 82 1016.7
20210731145601 81 342 1.0 1.0 0.00 0.00 0.00 81 1016.6
20210731145101 80 2 3.0 5.0 0.00 0.00 0.00 82 1016.8
20210731144600 81 333 2.0 2.0 0.00 0.00 0.00 83 1016.8
20210731144058 80 334 1.0 1.0 0.00 0.00 0.00 84 1017.1
20210731143557 80 24 1.0 1.0 0.00 0.00 0.00 84 1017.3
20210731143053 80 282 1.0 1.0 0.00 0.00 0.00 84 1017.2
20210731142552 80 306 1.0 2.0 0.00 0.00 0.00 84 1017.2
20210731142051 80 135 0.0 1.0 0.00 0.00 0.00 84 1017.0
20210731141549 79 205 0.0 0.0 0.00 0.00 0.00 85 1016.7
20210731141047 79 11 3.0 5.0 0.00 0.00 0.00 86 1016.7
20210731140546 79 202 0.0 0.0 0.00 0.00 0.00 86 1016.5
20210731140045 78 164 0.0 0.0 0.00 0.00 0.00 87 1016.4
20210731135545 78 184 0.0 0.0 0.00 0.00 0.00 89 1016.7
20210731135043 77 356 2.0 2.0 0.00 0.00 0.00 89 1016.5
20210731134542 77 311 1.0 2.0 0.00 0.00 0.00 89 1016.6
20210731134042 77 213 0.0 0.0 0.00 0.00 0.00 89 1016.2
20210731133540 77 222 1.0 1.0 0.00 0.00 0.00 90 1016.1
20210731133040 77 247 0.0 0.0 0.00 0.00 0.00 91 1016.4
20210731132539 77 275 0.0 0.0 0.00 0.00 0.00 91 1016.3
20210731132038 77 344 1.0 1.0 0.00 0.00 0.00 91 1016.3
20210731131536 77 253 0.0 0.0 0.00 0.00 0.00 91 1016.1
20210731131035 77 327 1.0 1.0 0.00 0.00 0.00 91 1016.2
20210731130533 77 342 1.0 2.0 0.00 0.00 0.00 91 1016.3
20210731130030 77 341 0.0 1.0 0.00 0.00 0.00 90 1016.1
20210731125529 77 350 0.0 1.0 0.00 0.00 0.00 91 1016.0
20210731125027 77 354 1.0 2.0 0.00 0.00 0.00 91 1016.1
20210731124527 77 3 0.0 1.0 0.00 0.00 0.00 92 1016.0
20210731124027 76 26 1.0 2.0 0.00 0.00 0.00 93 1015.9
20210731123525 76 351 2.0 2.0 0.00 0.00 0.00 94 1016.1
20210731123023 76 346 2.0 2.0 0.00 0.00 0.00 95 1015.9
20210731122520 76 213 0.0 0.0 0.00 0.00 0.00 95 1015.9
20210731122020 75 211 1.0 1.0 0.00 0.00 0.00 96 1015.6
20210731121518 75 212 0.0 0.0 0.00 0.00 0.00 96 1015.8
20210731121018 75 206 0.0 0.0 0.00 0.00 0.00 96 1015.7
20210731120515 75 197 0.0 0.0 0.00 0.00 0.00 96 1015.4
20210731120014 75 203 0.0 0.0 0.00 0.00 0.00 96 1015.6
20210731115512 75 207 0.0 1.0 0.00 0.00 0.00 96 1015.5
20210731115011 75 238 0.0 0.0 0.00 0.00 0.00 96 1015.0
20210731114510 75 209 0.0 0.0 0.00 0.00 0.00 96 1014.9
20210731114009 75 215 0.0 0.0 0.00 0.00 0.00 96 1014.9
20210731113509 75 225 0.0 0.0 0.00 0.00 0.00 96 1014.6
20210731113007 75 217 0.0 0.0 0.00 0.00 0.00 96 1014.8
20210731112506 75 245 0.0 0.0 0.00 0.00 0.00 96 1014.5
20210731112005 75 222 0.0 0.0 0.00 0.00 0.00 96 1014.4
20210731111503 75 223 0.0 0.0 0.00 0.00 0.00 96 1014.3
20210731110959 75 223 0.0 0.0 0.00 0.00 0.00 96 1014.1
20210731110458 75 214 0.0 0.0 0.00 0.00 0.00 96 1014.1
20210731105957 75 215 1.0 1.0 0.00 0.00 0.00 96 1014.0
20210731105453 75 208 1.0 1.0 0.00 0.00 0.00 96 1014.3
20210731104951 74 212 0.0 0.0 0.00 0.00 0.00 96 1014.2
20210731104450 75 212 0.0 0.0 0.00 0.00 0.00 96 1014.5
20210731103950 75 213 0.0 0.0 0.00 0.00 0.00 96 1014.2
20210731103449 75 211 0.0 0.0 0.00 0.00 0.00 96 1014.2
20210731102949 75 208 0.0 0.0 0.00 0.00 0.00 96 1014.3
20210731102447 75 210 0.0 0.0 0.00 0.00 0.00 96 1014.2
20210731101948 75 241 0.0 0.0 0.00 0.00 0.00 96 1014.2
20210731101447 75 245 0.0 0.0 0.00 0.00 0.00 96 1014.0
20210731100946 75 225 0.0 0.0 0.00 0.00 0.00 96 1014.1
20210731100442 75 212 0.0 0.0 0.00 0.00 0.00 96 1014.1
20210731095939 75 205 0.0 0.0 0.00 0.00 0.00 96 1014.4
20210731095438 75 207 1.0 1.0 0.00 0.00 0.00 96 1014.4
20210731094937 75 215 0.0 0.0 0.00 0.00 0.00 95 1014.5
20210731094435 75 224 0.0 0.0 0.00 0.00 0.00 95 1014.4
20210731093934 75 208 0.0 0.0 0.00 0.00 0.00 95 1014.8
20210731093432 75 212 1.0 1.0 0.00 0.00 0.00 95 1014.5
20210731092930 75 206 0.0 0.0 0.00 0.00 0.00 95 1014.8
20210731092429 75 220 0.0 0.0 0.00 0.00 0.00 95 1014.8
20210731091928 75 248 0.0 0.0 0.00 0.00 0.00 95 1014.9
20210731091426 75 239 0.0 0.0 0.00 0.00 0.00 95 1014.8
20210731090925 75 211 0.0 0.0 0.00 0.00 0.00 95 1014.4
20210731090422 75 215 0.0 0.0 0.00 0.00 0.00 95 1014.6
20210731085921 75 207 0.0 0.0 0.00 0.00 0.00 95 1014.6
20210731085421 75 216 0.0 0.0 0.00 0.00 0.00 95 1014.4
20210731084914 75 205 0.0 0.0 0.00 0.00 0.00 95 1014.8
20210731084413 75 205 0.0 0.0 0.00 0.00 0.00 95 1014.9
20210731083908 75 205 0.0 0.0 0.00 0.00 0.00 95 1014.8
20210731083404 76 206 1.0 1.0 0.00 0.00 0.00 94 1014.8
20210731082903 76 214 0.0 0.0 0.00 0.00 0.00 94 1014.6
20210731082400 76 208 1.0 1.0 0.00 0.00 0.00 94 1014.5
20210731081900 76 215 0.0 0.0 0.00 0.00 0.00 94 1014.8
20210731081357 76 252 0.0 0.0 0.00 0.00 0.00 94 1014.8
20210731080855 76 349 2.0 2.0 0.00 0.00 0.00 94 1014.8
20210731080354 76 222 0.0 0.0 0.00 0.00 0.00 94 1014.9
20210731075853 76 217 1.0 2.0 0.00 0.00 0.00 94 1014.6
20210731075351 76 197 2.0 2.0 0.00 0.00 0.00 94 1015.0
20210731074845 76 246 0.0 0.0 0.00 0.00 0.00 94 1015.1
20210731074345 76 5 3.0 3.0 0.00 0.00 0.00 94 1014.9
20210731073844 76 356 2.0 2.0 0.00 0.00 0.00 94 1015.1
20210731073340 76 274 1.0 1.0 0.00 0.00 0.00 93 1015.1
20210731072833 77 234 0.0 0.0 0.00 0.00 0.00 93 1015.1
20210731072333 77 238 0.0 0.0 0.00 0.00 0.00 93 1015.2
20210731071833 77 224 0.0 0.0 0.00 0.00 0.00 93 1015.2
20210731071330 77 215 0.0 0.0 0.00 0.00 0.00 92 1015.3
20210731070829 77 223 0.0 0.0 0.00 0.00 0.00 92 1015.7
20210731070329 77 218 0.0 0.0 0.00 0.00 0.00 92 1015.7
20210731065825 77 201 0.0 0.0 0.00 0.00 0.00 92 1015.6
20210731065321 77 321 1.0 1.0 0.00 0.00 0.00 92 1015.7
20210731064820 76 250 0.0 0.0 0.00 0.00 0.00 93 1015.8
20210731064319 76 224 0.0 0.0 0.00 0.00 0.00 93 1015.8
20210731063819 76 215 0.0 0.0 0.00 0.00 0.00 93 1015.6
20210731063316 76 190 0.0 1.0 0.00 0.00 0.00 93 1015.9
20210731062816 76 217 0.0 0.0 0.00 0.00 0.00 94 1015.9
20210731062315 76 218 0.0 0.0 0.00 0.00 0.00 93 1016.1
20210731061815 76 218 0.0 0.0 0.00 0.00 0.00 93 1016.1
20210731061314 76 229 0.0 0.0 0.00 0.00 0.00 93 1016.4
20210731060814 76 214 0.0 0.0 0.00 0.00 0.00 93 1016.1
20210731060313 76 218 0.0 0.0 0.00 0.00 0.00 93 1016.4
20210731055812 76 260 0.0 0.0 0.00 0.00 0.00 93 1016.4
20210731055310 76 208 0.0 0.0 0.00 0.00 0.00 93 1016.3
20210731054809 76 231 0.0 0.0 0.00 0.00 0.00 93 1016.2
20210731054309 76 246 0.0 1.0 0.00 0.00 0.00 93 1016.1
20210731053809 76 245 0.0 0.0 0.00 0.00 0.00 92 1016.1
20210731053306 76 227 0.0 0.0 0.00 0.00 0.00 92 1016.0
20210731052804 76 209 0.0 0.0 0.00 0.00 0.00 92 1016.2
20210731052305 77 214 0.0 0.0 0.00 0.00 0.00 92 1016.3
20210731051801 77 215 0.0 0.0 0.00 0.00 0.00 92 1016.5
20210731051301 77 233 0.0 0.0 0.00 0.00 0.00 91 1016.4
20210731050759 77 246 1.0 1.0 0.00 0.00 0.00 91 1016.3
20210731050258 77 227 0.0 0.0 0.00 0.00 0.00 90 1016.3
20210731045758 77 217 0.0 0.0 0.00 0.37 0.37 90 1016.3
20210731045256 77 202 0.0 1.0 0.00 0.37 0.37 91 1016.1
20210731044756 77 224 1.0 1.0 0.00 0.37 0.37 92 1016.0
20210731044255 77 230 0.0 0.0 0.00 0.37 0.37 93 1016.3
20210731043754 77 209 0.0 0.0 0.00 0.37 0.37 92 1016.3
20210731043253 77 216 0.0 0.0 0.00 0.37 0.37 92 1016.5
20210731042752 77 209 0.0 0.0 0.00 0.37 0.37 92 1016.4
20210731042249 77 239 0.0 0.0 0.00 0.37 0.37 92 1016.5
20210731041749 78 279 1.0 1.0 0.00 0.37 0.37 91 1016.0
20210731041247 78 226 0.0 0.0 0.00 0.37 0.37 90 1015.5
20210731040746 78 202 0.0 0.0 0.00 0.37 0.37 90 1015.5
20210731040244 78 216 0.0 0.0 0.00 0.37 0.37 89 1015.7
20210731035741 79 224 0.0 0.0 0.00 0.37 0.37 89 1015.6
20210731035241 79 260 1.0 1.0 0.00 0.37 0.37 88 1015.6
20210731034741 79 238 0.0 0.0 0.00 0.37 0.37 88 1015.3
20210731034239 79 217 0.0 0.0 0.00 0.37 0.37 89 1015.2
20210731033738 78 206 0.0 0.0 0.00 0.37 0.37 90 1015.1
20210731033237 78 213 1.0 1.0 0.00 0.37 0.37 91 1015.2
20210731032737 78 190 0.0 1.0 0.00 0.37 0.37 92 1015.1
20210731032236 78 211 0.0 1.0 0.00 0.37 0.37 92 1015.3
20210731031736 78 231 0.0 1.0 0.00 0.37 0.37 92 1015.1
20210731031235 78 226 0.0 0.0 0.00 0.37 0.37 93 1015.0
20210731030734 79 183 1.0 1.0 0.00 0.37 0.37 93 1015.2
20210731030232 79 213 1.0 1.0 0.00 0.37 0.37 93 1015.3
20210731025732 79 211 0.0 0.0 0.00 0.37 0.37 92 1015.6
20210731025229 79 221 0.0 0.0 0.00 0.37 0.37 92 1015.6
20210731024727 79 221 0.0 0.0 0.00 0.37 0.37 92 1015.7
20210731024226 79 233 0.0 0.0 0.00 0.37 0.37 91 1015.7
20210731023724 79 218 0.0 0.0 0.00 0.37 0.37 91 1015.5
20210731023223 80 222 0.0 0.0 0.00 0.37 0.37 91 1015.7
20210731022721 80 215 0.0 0.0 0.00 0.37 0.37 90 1015.6
20210731022221 80 202 0.0 0.0 0.00 0.37 0.37 90 1015.6
20210731021720 80 206 0.0 0.0 0.00 0.37 0.37 89 1015.6
20210731021217 80 216 0.0 0.0 0.00 0.37 0.37 89 1015.6
20210731020715 80 224 0.0 0.0 0.00 0.37 0.37 89 1015.5
20210731020214 80 213 0.0 0.0 0.00 0.37 0.37 89 1015.4
20210731015714 80 205 0.0 0.0 0.00 0.37 0.37 88 1015.1
20210731015213 80 218 0.0 0.0 0.00 0.37 0.37 88 1015.4
20210731014710 80 167 0.0 0.0 0.00 0.37 0.37 88 1015.4
20210731014209 80 202 0.0 0.0 0.00 0.37 0.37 87 1015.5
20210731013708 80 211 0.0 1.0 0.00 0.37 0.37 87 1015.4
20210731013207 80 220 0.0 0.0 0.00 0.37 0.37 87 1015.7
20210731012706 81 214 0.0 0.0 0.00 0.37 0.37 87 1015.6
20210731012204 81 217 0.0 0.0 0.00 0.37 0.37 86 1015.6
20210731011702 81 215 0.0 0.0 0.00 0.37 0.37 85 1015.7
20210731011200 81 250 0.0 1.0 0.00 0.37 0.37 85 1015.7
20210731010659 81 98 1.0 1.0 0.00 0.37 0.37 84 1015.8
20210731010157 81 16 2.0 2.0 0.00 0.37 0.37 84 1015.8
20210731005655 81 283 0.0 0.0 0.00 0.37 0.37 84 1015.8
20210731005154 81 209 0.0 0.0 0.00 0.37 0.37 83 1015.9
20210731004654 82 283 0.0 0.0 0.00 0.37 0.37 83 1015.9
20210731004139 81 201 1.0 1.0 0.00 0.37 0.37 83 1015.8
20210731003637 82 214 0.0 0.0 0.00 0.37 0.37 83 1016.1
20210731003135 82 214 0.0 0.0 0.00 0.37 0.37 83 1016.1
20210731002635 82 235 0.0 0.0 0.00 0.37 0.37 83 1016.1
20210731002131 82 216 0.0 0.0 0.00 0.37 0.37 83 1016.1
20210731001631 82 241 0.0 0.0 0.00 0.37 0.37 83 1016.1
20210731001130 82 241 0.0 0.0 0.00 0.37 0.37 83 1015.9
20210731000629 82 227 2.0 2.0 0.00 0.37 0.37 83 1015.9
20210731000127 82 215 0.0 0.0 0.00 0.37 0.37 83 1015.8
20210730235626 82 285 1.0 1.0 0.00 0.37 0.37 82 1015.7
20210730235122 81 280 1.0 2.0 0.00 0.37 0.37 84 1015.8
20210730234620 81 245 0.0 1.0 0.00 0.37 0.37 85 1015.7
20210730234118 81 243 0.0 0.0 0.00 0.37 0.37 84 1015.6
20210730233617 81 225 1.0 1.0 0.00 0.37 0.37 84 1015.8
20210730233115 81 13 1.0 2.0 0.00 0.37 0.37 84 1015.9
20210730232614 81 174 0.0 1.0 0.00 0.37 0.37 86 1016.0
20210730232112 80 307 1.0 1.0 0.00 0.37 0.37 88 1015.9
20210730231610 80 18 2.0 3.0 0.00 0.37 0.37 88 1016.5
20210730231109 80 348 1.0 2.0 0.00 0.37 0.37 91 1016.1
20210730230608 80 18 1.0 2.0 0.00 0.37 0.37 91 1016.3
20210730230105 80 48 3.0 3.0 0.00 0.37 0.37 91 1016.0
20210730225605 80 0 1.0 1.0 0.00 0.37 0.37 92 1016.2
20210730225103 79 207 1.0 2.0 0.73 0.37 0.37 91 1016.1
20210730224601 79 175 4.0 7.0 1.91 0.35 0.35 90 1016.4
20210730224059 82 341 3.0 5.0 1.48 0.26 0.26 87 1016.4
20210730223559 83 220 1.0 2.0 0.18 0.03 0.03 81 1016.5
20210730223058 84 187 1.0 1.0 0.07 0.02 0.02 81 1016.6
20210730222557 85 179 2.0 2.0 0.00 0.00 0.00 83 1016.6
20210730222055 87 220 4.0 6.0 0.04 0.00 0.00 81 1016.4
20210730221554 88 212 0.0 0.0 0.04 0.00 0.00 78 1016.1
20210730221052 89 333 0.0 0.0 0.00 0.00 0.00 74 1016.1
20210730220549 89 201 0.0 0.0 0.00 0.00 0.00 72 1016.1
20210730220048 90 214 0.0 0.0 0.00 0.00 0.00 72 1015.8
20210730215547 90 234 0.0 1.0 0.00 0.00 0.00 71 1016.0
20210730215046 90 212 0.0 1.0 0.00 0.00 0.00 70 1015.9
20210730214546 90 196 1.0 1.0 0.00 0.00 0.00 71 1015.8
20210730214045 91 330 2.0 2.0 0.00 0.00 0.00 70 1015.7
20210730213544 91 13 2.0 2.0 0.00 0.00 0.00 69 1015.9
20210730213041 91 271 1.0 1.0 0.00 0.00 0.00 69 1016.1
20210730212539 90 338 1.0 2.0 0.00 0.00 0.00 69 1016.0
20210730212036 90 316 1.0 3.0 0.00 0.00 0.00 69 1015.9
20210730211533 90 351 1.0 1.0 0.00 0.00 0.00 69 1016.0
20210730211032 91 341 1.0 2.0 0.00 0.00 0.00 68 1016.0
20210730210531 91 6 4.0 6.0 0.00 0.00 0.00 67 1015.6
20210730210029 92 211 2.0 2.0 0.00 0.00 0.00 66 1015.9
20210730205528 93 356 2.0 2.0 0.00 0.00 0.00 65 1016.0
20210730205028 93 6 2.0 2.0 0.00 0.00 0.00 66 1015.9
20210730204527 92 338 0.0 1.0 0.00 0.00 0.00 64 1015.9
20210730204025 93 11 2.0 2.0 0.00 0.00 0.00 64 1016.1
20210730203524 93 13 4.0 5.0 0.00 0.00 0.00 65 1016.3
20210730203023 93 18 2.0 3.0 0.00 0.00 0.00 64 1016.1
20210730202521 93 350 4.0 6.0 0.00 0.00 0.00 65 1016.1
20210730202020 94 16 5.0 6.0 0.00 0.00 0.00 64 1016.1
20210730201520 95 355 3.0 3.0 0.00 0.00 0.00 64 1016.3
20210730201018 95 357 1.0 2.0 0.00 0.00 0.00 62 1016.2
20210730200517 95 243 0.0 1.0 0.00 0.00 0.00 60 1016.4
20210730200016 94 16 6.0 8.0 0.00 0.00 0.00 60 1016.3
20210730195514 94 246 2.0 2.0 0.00 0.00 0.00 61 1016.4
20210730195013 95 13 7.0 8.0 0.00 0.00 0.00 62 1016.4
20210730194513 94 331 3.0 3.0 0.00 0.00 0.00 63 1016.4
20210730194011 93 29 2.0 2.0 0.00 0.00 0.00 62 1016.3
20210730193511 93 12 3.0 3.0 0.00 0.00 0.00 63 1016.5
20210730193010 93 46 2.0 5.0 0.00 0.00 0.00 63 1016.2
20210730192507 93 347 4.0 6.0 0.00 0.00 0.00 63 1016.2
20210730192005 92 10 3.0 5.0 0.00 0.00 0.00 63 1016.5
20210730191505 92 346 2.0 2.0 0.00 0.00 0.00 63 1016.6
20210730191003 92 344 1.0 1.0 0.00 0.00 0.00 63 1016.6
20210730190504 94 6 4.0 5.0 0.00 0.00 0.00 62 1016.7
20210730185958 94 221 3.0 5.0 0.00 0.00 0.00 61 1016.7
20210730185454 94 228 2.0 2.0 0.00 0.00 0.00 61 1016.6
20210730184954 94 219 1.0 1.0 0.00 0.00 0.00 63 1016.5
20210730184452 94 338 2.0 5.0 0.00 0.00 0.00 62 1016.9
20210730183950 93 270 1.0 1.0 0.00 0.00 0.00 64 1016.9
20210730183448 93 352 3.0 3.0 0.00 0.00 0.00 63 1017.0